O3b星座 FM3星 (O3B FM3)

导读

O3B FM3是O3B星座的第三代中地球轨道通信卫星,于2014年7月10日发射升空。该卫星主要为偏远地区提供高速互联网接入与通信服务,填补传统通信网络覆盖盲区,相比静止轨道卫星,它能提供更低延迟的连接,助力海事、航空等移动平台稳定联网,推动全球通信普惠发展,是中轨卫星互联网建设的重要实践节点。

基本信息
目录编号:
40079
目录名称:
O3B FM3
国际标识:
2014-038A
轨道中心:
EARTH
卫星名称:
O3b星座 FM3星
卫星全名:
O3b星座 FM3星 (O3B FM3)
卫星状态:
在轨 (已飞行4355 天)
发射日期:
2014-07-10 UTC
国别 :
(O3B)
星等 :
--
轨道信息
数据来源 国际轨道数据 AOE轨道数据
星历时间 2026-06-11T01:01:26+0800
2天前
查看轨道信息
2026-06-10T11:00:00+0800
2天前
查看轨道信息
半长轴 14444.026km 14444.028km
偏心率 0.000217 0.0002278
轨道倾角 0.048° 0.049°
近地点辐角 145.028° 144.618°
升交点赤经 353.918° 353.914°
平近点角 221.073° 249.116°
近地点 8062.754km 8062.6km
远地点 8069.024km 8069.182km
周期 287.933分钟 287.933分钟
每日圈数 5.001156 5.001155
详细信息
平衡模式:
三轴稳定
覆盖范围:
全球
运营商:
欧洲卫星公司
运营商所在国:
卢森堡
制造商(研发单位):
阿莱尼亚宇航公司
制造商所在国:
意大利
使用方式:
暂无
卫星简介
O3b卫星星座分为O3b FM卫星星座和O3b mPOWER卫星星座,前者是由阿莱尼亚宇航公司制造的第一代O3b卫星星座,后者是由波音公司制造的第二代O3b卫星星座。O3b卫星初始星座运行于赤道圆轨道,轨道高度8062公里,能够覆盖全球南北纬45°之间所有地方,在南、北纬45°~62°范围内也能提供一定的服务。该卫星仍在工作。
2D轨道图
3D轨道图
轨道高度分析图
轨道倾角分析图
轨道综合分析图
查看轨道综合分析图